Regional Weather Roundup
Issued by NWS

Home | Current Version | Previous Version | Text Only | Print | Product List | Glossary On
Versions: 1 2 3 4 5 6 7 8 9 10 11 12 13 14 15 16 17 18 19 20 21 22 23 24 25 26 27 28 29 30 31 32 33 34 35 36 37 38 39 40 41 42 43 44 45 46 47 48 49 50
000
ASUS45 KREV 132310
RWRNV
NEVADA REGIONAL WEATHER ROUNDUP
NATIONAL WEATHER SERVICE RENO NV
400 PM PDT SUN JUL 13 2014

NOTE: "FAIR" INDICATES FEW OR NO CLOUDS BELOW 12,000 FEET WITH NO
SIGNIFICANT WEATHER AND/OR OBSTRUCTIONS TO VISIBILITY.

NVZ001-003-004-140000-
WESTERN NEVADA

CITY           SKY/WX    TMP DP  RH WIND       PRES   REMARKS
RENO           MOSUNNY  102  38  11 N7        30.06F
CARSON CITY    FAIR      99  39  12 W10G18    30.11F
SLIDE MTN        N/A     73  48  40 W14         N/A
PYRAMID LAKE     N/A     91 N/A N/A N2          N/A
FALLON         PTSUNNY  103  33   9 VRB7      30.02F
LOVELOCK       SUNNY    105  33   8 SW10G21   30.02F
HAWTHORNE      SUNNY    102  32   8 NW9       30.03F
$$

NVZ002-CAZ072-073-140000-
NORTHERN AND CENTRAL SIERRA

CITY           SKY/WX    TMP DP  RH WIND       PRES   REMARKS
S. LAKE TAHOE  SUNNY     89  41  18 VRB3      30.27
TRUCKEE        MOSUNNY   91  39  16 W8G24     30.25F
SQUAW VLY 8000 NOT AVBL
SUSANVILLE     SUNNY    100  37  11 SW18G29   30.06F
BLUE CANYON    SUNNY     85  47  26 NW7       30.25F
MAMMOTH LAKES  FAIR      91  32  12 W8        30.31F
BRIDGEPORT     FAIR      89  38  16 W13G23    30.27S
$$

NVZ030-031-036-140000-
NORTHERN NEVADA

CITY           SKY/WX    TMP DP  RH WIND       PRES   REMARKS
ELKO           SUNNY     99  33  10 W6        30.13F
WINNEMUCCA     NOT AVBL
$$

NVZ035-037-140000-
CENTRAL NEVADA

CITY           SKY/WX    TMP DP  RH WIND       PRES   REMARKS
ELY            NOT AVBL
EUREKA           N/A     96  34  11 E8        30.19F
$$

NVZ013-014-140000-
SOUTH CENTRAL NEVADA

CITY           SKY/WX    TMP DP  RH WIND       PRES   REMARKS
TONOPAH        SUNNY     98  30   9 SW10      30.15F
$$

NVZ017-020-022-140000-
SOUTHERN NEVADA

CITY           SKY/WX    TMP DP  RH WIND       PRES   REMARKS
LAS VEGAS      MOSUNNY  110  38   8 SW3       29.80F
N. LAS VEGAS   SUNNY    109  36   8 E3        29.83F
NELLIS AFB     SUNNY    109  42  10 VRB3      29.80F
HENDERSON      SUNNY    111  39   8 N7        29.87F
MERCURY        SUNNY    107  35   8 SW7G16    29.91F
$$



USA.gov is the U.S. government's official web portal to all federal, state and local government web resources and services.